TimeCST,TemperatureF,Dew PointF,Humidity,Sea Level PressureIn,VisibilityMPH,Wind Direction,Wind SpeedMPH,Gust SpeedMPH,PrecipitationIn,Events,Conditions,WindDirDegrees,DateUTC
12:15 AM,46.4,30.2,53,30.16,10.0,South,10.4,17.3,N/A,,Clear,180,2012-11-30 06:15:00
12:35 AM,46.4,30.2,53,30.16,10.0,South,6.9,-,N/A,,Clear,190,2012-11-30 06:35:00
12:55 AM,44.6,30.2,57,30.16,10.0,South,8.1,-,N/A,,Clear,180,2012-11-30 06:55:00
1:15 AM,44.6,30.2,57,30.16,10.0,South,10.4,-,N/A,,Clear,180,2012-11-30 07:15:00
1:35 AM,44.6,30.2,57,30.16,10.0,South,11.5,-,N/A,,Clear,190,2012-11-30 07:35:00
1:55 AM,44.6,30.2,57,30.16,10.0,South,10.4,-,N/A,,Clear,190,2012-11-30 07:55:00
2:15 AM,44.6,30.2,57,30.16,10.0,South,9.2,-,N/A,,Clear,180,2012-11-30 08:15:00
2:35 AM,44.6,30.2,57,30.17,10.0,South,10.4,-,N/A,,Clear,190,2012-11-30 08:35:00
2:55 AM,44.6,30.2,57,30.17,10.0,South,6.9,-,N/A,,Clear,190,2012-11-30 08:55:00
3:15 AM,42.8,30.2,61,30.17,10.0,South,8.1,-,N/A,,Clear,190,2012-11-30 09:15:00
3:35 AM,44.6,30.2,57,30.15,10.0,South,9.2,-,N/A,,Clear,180,2012-11-30 09:35:00
3:55 AM,44.6,30.2,57,30.15,10.0,South,10.4,-,N/A,,Clear,170,2012-11-30 09:55:00
4:15 AM,44.6,30.2,57,30.15,10.0,South,9.2,-,N/A,,Clear,170,2012-11-30 10:15:00
4:35 AM,44.6,30.2,57,30.15,10.0,South,9.2,-,N/A,,Clear,170,2012-11-30 10:35:00
4:55 AM,44.6,30.2,57,30.14,10.0,South,11.5,-,N/A,,Clear,180,2012-11-30 10:55:00
5:15 AM,44.6,30.2,57,30.14,10.0,South,9.2,-,N/A,,Clear,180,2012-11-30 11:15:00
5:35 AM,44.6,32.0,61,30.14,10.0,South,10.4,-,N/A,,Clear,180,2012-11-30 11:35:00
5:55 AM,42.8,32.0,66,30.14,10.0,South,10.4,-,N/A,,Clear,180,2012-11-30 11:55:00
6:15 AM,42.8,32.0,66,30.15,10.0,South,11.5,-,N/A,,Clear,180,2012-11-30 12:15:00
6:35 AM,42.8,32.0,66,30.15,10.0,South,11.5,18.4,N/A,,Clear,180,2012-11-30 12:35:00
6:55 AM,42.8,33.8,70,30.15,10.0,South,11.5,16.1,N/A,,Scattered Clouds,180,2012-11-30 12:55:00
7:15 AM,42.8,33.8,70,30.15,10.0,South,12.7,-,N/A,,Scattered Clouds,180,2012-11-30 13:15:00
7:35 AM,42.8,33.8,70,30.15,10.0,South,11.5,-,N/A,,Clear,180,2012-11-30 13:35:00
7:55 AM,44.6,33.8,66,30.15,10.0,South,13.8,19.6,N/A,,Clear,180,2012-11-30 13:55:00
8:15 AM,44.6,33.8,66,30.15,10.0,South,13.8,20.7,N/A,,Clear,180,2012-11-30 14:15:00
8:35 AM,46.4,33.8,62,30.15,10.0,South,12.7,18.4,N/A,,Clear,190,2012-11-30 14:35:00
8:55 AM,48.2,33.8,58,30.16,10.0,South,12.7,18.4,N/A,,Clear,190,2012-11-30 14:55:00
9:15 AM,48.2,33.8,58,30.16,10.0,South,12.7,17.3,N/A,,Clear,190,2012-11-30 15:15:00
9:35 AM,50.0,33.8,54,30.17,10.0,South,8.1,18.4,N/A,,Clear,190,2012-11-30 15:35:00
9:55 AM,51.8,33.8,50,30.16,10.0,South,15.0,-,N/A,,Clear,190,2012-11-30 15:55:00
10:15 AM,51.8,33.8,50,30.16,10.0,South,12.7,-,N/A,,Clear,190,2012-11-30 16:15:00
10:35 AM,53.6,33.8,47,30.16,10.0,South,10.4,16.1,N/A,,Clear,180,2012-11-30 16:35:00
10:55 AM,55.4,33.8,44,30.15,10.0,South,8.1,-,N/A,,Clear,180,2012-11-30 16:55:00
11:15 AM,55.4,33.8,44,30.14,10.0,South,9.2,-,N/A,,Clear,180,2012-11-30 17:15:00
11:35 AM,57.2,33.8,41,30.13,10.0,South,11.5,-,N/A,,Clear,190,2012-11-30 17:35:00
11:55 AM,57.2,33.8,41,30.13,10.0,South,9.2,-,N/A,,Clear,190,2012-11-30 17:55:00
12:15 PM,59.0,32.0,36,30.11,10.0,South,10.4,-,N/A,,Clear,170,2012-11-30 18:15:00
12:35 PM,60.8,33.8,36,30.11,10.0,South,6.9,-,N/A,,Clear,170,2012-11-30 18:35:00
12:55 PM,60.8,32.0,34,30.10,10.0,South,8.1,-,N/A,,Clear,180,2012-11-30 18:55:00
1:15 PM,60.8,32.0,34,30.10,10.0,South,9.2,-,N/A,,Clear,170,2012-11-30 19:15:00
1:35 PM,60.8,32.0,34,30.10,10.0,South,10.4,-,N/A,,Clear,180,2012-11-30 19:35:00
1:55 PM,60.8,32.0,34,30.09,10.0,South,8.1,-,N/A,,Clear,170,2012-11-30 19:55:00
2:15 PM,60.8,32.0,34,30.09,10.0,South,9.2,-,N/A,,Clear,170,2012-11-30 20:15:00
2:35 PM,60.8,32.0,34,30.09,10.0,South,8.1,-,N/A,,Clear,180,2012-11-30 20:35:00
2:55 PM,60.8,32.0,34,30.09,10.0,South,10.4,-,N/A,,Clear,180,2012-11-30 20:55:00
3:15 PM,60.8,33.8,36,30.09,10.0,South,11.5,-,N/A,,Clear,170,2012-11-30 21:15:00
3:35 PM,60.8,35.6,39,30.10,10.0,South,6.9,-,N/A,,Clear,170,2012-11-30 21:35:00
3:55 PM,60.8,35.6,39,30.10,10.0,SSE,6.9,-,N/A,,Clear,160,2012-11-30 21:55:00
4:15 PM,57.2,37.4,48,30.10,10.0,South,8.1,-,N/A,,Clear,170,2012-11-30 22:15:00
4:35 PM,57.2,39.2,51,30.10,10.0,South,8.1,-,N/A,,Clear,170,2012-11-30 22:35:00
4:55 PM,55.4,39.2,54,30.11,10.0,South,8.1,-,N/A,,Clear,170,2012-11-30 22:55:00
5:15 PM,55.4,42.8,63,30.11,10.0,South,8.1,-,N/A,,Clear,170,2012-11-30 23:15:00
5:35 PM,55.4,42.8,63,30.11,10.0,SSE,8.1,-,N/A,,Clear,160,2012-11-30 23:35:00
5:55 PM,55.4,44.6,67,30.12,10.0,South,8.1,-,N/A,,Clear,170,2012-11-30 23:55:00
6:15 PM,55.4,46.4,72,30.12,10.0,South,9.2,-,N/A,,Clear,170,2012-12-01 00:15:00
6:35 PM,53.6,46.4,77,30.12,10.0,South,9.2,-,N/A,,Clear,170,2012-12-01 00:35:00
6:55 PM,53.6,46.4,77,30.12,10.0,South,9.2,-,N/A,,Clear,170,2012-12-01 00:55:00
7:15 PM,53.6,46.4,77,30.12,10.0,South,8.1,-,N/A,,Clear,170,2012-12-01 01:15:00
7:35 PM,53.6,46.4,77,30.12,10.0,South,8.1,-,N/A,,Clear,190,2012-12-01 01:35:00
7:55 PM,53.6,46.4,77,30.12,10.0,South,6.9,-,N/A,,Clear,190,2012-12-01 01:55:00
8:15 PM,53.6,46.4,77,30.13,10.0,South,9.2,-,N/A,,Clear,180,2012-12-01 02:15:00
8:35 PM,53.6,48.2,82,30.13,10.0,South,8.1,-,N/A,,Clear,180,2012-12-01 02:35:00
9:15 PM,53.6,48.2,82,30.12,10.0,South,10.4,-,N/A,,Clear,170,2012-12-01 03:15:00
9:35 PM,53.6,48.2,82,30.12,10.0,South,11.5,-,N/A,,Clear,180,2012-12-01 03:35:00
9:55 PM,51.8,50.0,94,30.13,10.0,South,9.2,-,N/A,,Clear,180,2012-12-01 03:55:00
10:15 PM,51.8,50.0,94,30.13,10.0,South,9.2,-,N/A,,Clear,190,2012-12-01 04:15:00
10:35 PM,51.8,50.0,94,30.13,10.0,South,9.2,-,N/A,,Clear,190,2012-12-01 04:35:00
10:55 PM,51.8,50.0,94,30.13,10.0,South,6.9,-,N/A,,Clear,190,2012-12-01 04:55:00
11:15 PM,51.8,51.8,100,30.13,10.0,South,6.9,-,N/A,,Clear,180,2012-12-01 05:15:00
11:35 PM,51.8,51.8,100,30.13,10.0,South,9.2,-,N/A,,Clear,180,2012-12-01 05:35:00
11:55 PM,51.8,51.8,100,30.13,10.0,South,6.9,-,N/A,,Clear,190,2012-12-01 05:55:00